Time,TemperatureF,DewpointF,PressureIn,WindDirection,WindDirectionDegrees,WindSpeedMPH,WindSpeedGustMPH,Humidity,HourlyPrecipIn,Conditions,Clouds,dailyrainin,SoftwareType,DateUTC
2013-03-27 00:13:00,44.2,29.0,31.20,NE,36,0.0,-999.0,55,-99.99,,,0.00,weatherlink.com 1.10,2013-03-27 05:13:00,
2013-03-27 00:28:00,45.5,29.0,31.20,NE,55,0.0,-999.0,52,-99.99,,,0.00,weatherlink.com 1.10,2013-03-27 05:28:00,
2013-03-27 00:43:00,45.4,28.0,31.19,NE,55,0.0,-999.0,51,-99.99,,,0.00,weatherlink.com 1.10,2013-03-27 05:43:00,
2013-03-27 00:58:00,45.5,27.0,31.19,ENE,57,0.0,-999.0,49,-99.99,,,0.00,weatherlink.com 1.10,2013-03-27 05:58:00,
2013-03-27 01:13:00,44.6,28.0,31.19,ENE,57,0.0,-999.0,53,-99.99,,,0.00,weatherlink.com 1.10,2013-03-27 06:13:00,
2013-03-27 01:28:00,43.0,28.0,31.18,ENE,57,0.0,-999.0,55,-99.99,,,0.00,weatherlink.com 1.10,2013-03-27 06:28:00,
2013-03-27 01:43:00,41.9,28.0,31.18,ENE,57,0.0,-999.0,58,-99.99,,,0.00,weatherlink.com 1.10,2013-03-27 06:43:00,
2013-03-27 01:58:00,40.9,29.0,31.18,ENE,57,0.0,-999.0,62,-99.99,,,0.00,weatherlink.com 1.10,2013-03-27 06:58:00,
2013-03-27 02:13:00,41.0,27.0,31.17,ENE,57,0.0,-999.0,59,-99.99,,,0.00,weatherlink.com 1.10,2013-03-27 07:13:00,
2013-03-27 02:28:00,42.8,27.0,31.17,ENE,57,0.0,-999.0,53,-99.99,,,0.00,weatherlink.com 1.10,2013-03-27 07:28:00,
2013-03-27 02:43:00,44.5,26.0,31.17,East,96,0.0,-999.0,48,-99.99,,,0.00,weatherlink.com 1.10,2013-03-27 07:43:00,
2013-03-27 02:58:00,45.7,25.0,31.16,ESE,109,0.0,-999.0,45,-99.99,,,0.00,weatherlink.com 1.10,2013-03-27 07:58:00,
2013-03-27 03:13:00,45.9,25.0,31.16,ESE,112,0.0,-999.0,44,-99.99,,,0.00,weatherlink.com 1.10,2013-03-27 08:13:00,
2013-03-27 03:28:00,45.5,26.0,31.16,ESE,112,0.0,-999.0,47,-99.99,,,0.00,weatherlink.com 1.10,2013-03-27 08:28:00,
2013-03-27 03:43:00,40.8,27.0,31.17,SSW,208,0.0,-999.0,59,-99.99,,,0.00,weatherlink.com 1.10,2013-03-27 08:43:00,
2013-03-27 03:58:00,38.4,27.0,31.16,SSW,208,0.0,-999.0,64,-99.99,,,0.00,weatherlink.com 1.10,2013-03-27 08:58:00,
2013-03-27 04:13:00,38.7,27.0,31.16,SSW,208,0.0,-999.0,62,-99.99,,,0.00,weatherlink.com 1.10,2013-03-27 09:13:00,
2013-03-27 04:28:00,39.2,27.0,31.16,SSW,208,0.0,-999.0,61,-99.99,,,0.00,weatherlink.com 1.10,2013-03-27 09:28:00,
2013-03-27 04:43:00,39.0,28.0,31.16,SSW,208,0.0,-999.0,64,-99.99,,,0.00,weatherlink.com 1.10,2013-03-27 09:43:00,
2013-03-27 04:58:00,37.9,28.0,31.16,SSW,208,0.0,-999.0,67,-99.99,,,0.00,weatherlink.com 1.10,2013-03-27 09:58:00,
2013-03-27 05:13:00,36.8,28.0,31.16,SSW,208,0.0,-999.0,71,-99.99,,,0.00,weatherlink.com 1.10,2013-03-27 10:13:00,
2013-03-27 05:28:00,36.1,28.0,31.16,SSW,208,0.0,-999.0,72,-99.99,,,0.00,weatherlink.com 1.10,2013-03-27 10:28:00,
2013-03-27 05:43:00,35.5,27.0,31.17,SSW,208,0.0,-999.0,72,-99.99,,,0.00,weatherlink.com 1.10,2013-03-27 10:43:00,
2013-03-27 05:58:00,35.1,28.0,31.17,SSW,208,0.0,-999.0,74,-99.99,,,0.00,weatherlink.com 1.10,2013-03-27 10:58:00,
2013-03-27 06:13:00,35.1,28.0,31.17,SSW,208,0.0,-999.0,76,-99.99,,,0.00,weatherlink.com 1.10,2013-03-27 11:13:00,
2013-03-27 06:28:00,34.8,28.0,31.18,SSW,208,0.0,-999.0,77,-99.99,,,0.00,weatherlink.com 1.10,2013-03-27 11:28:00,
2013-03-27 06:43:00,34.6,29.0,31.18,SSW,208,0.0,-999.0,79,-99.99,,,0.00,weatherlink.com 1.10,2013-03-27 11:43:00,
2013-03-27 06:58:00,34.6,29.0,31.19,SSW,208,0.0,-999.0,79,-99.99,,,0.00,weatherlink.com 1.10,2013-03-27 11:58:00,
2013-03-27 07:13:00,34.7,29.0,31.19,SSW,208,0.0,-999.0,80,-99.99,,,0.00,weatherlink.com 1.10,2013-03-27 12:13:00,
2013-03-27 07:28:00,34.8,30.0,31.20,SSW,208,0.0,-999.0,81,-99.99,,,0.00,weatherlink.com 1.10,2013-03-27 12:28:00,
2013-03-27 07:43:00,34.8,30.0,31.19,SSW,208,0.0,-999.0,82,-99.99,,,0.00,weatherlink.com 1.10,2013-03-27 12:43:00,
2013-03-27 07:58:00,36.4,32.0,31.19,SSW,208,0.0,-999.0,84,-99.99,,,0.00,weatherlink.com 1.10,2013-03-27 12:58:00,
2013-03-27 08:13:00,40.2,35.0,31.19,SSW,208,0.0,-999.0,81,-99.99,,,0.00,weatherlink.com 1.10,2013-03-27 13:13:00,
2013-03-27 08:28:00,44.1,36.0,31.20,ESE,123,4.0,-999.0,73,-99.99,,,0.00,weatherlink.com 1.10,2013-03-27 13:28:00,
2013-03-27 08:43:00,45.2,34.0,31.20,ESE,115,0.0,-999.0,66,-99.99,,,0.00,weatherlink.com 1.10,2013-03-27 13:43:00,
2013-03-27 08:58:00,47.3,36.0,31.20,East,96,0.0,-999.0,64,-99.99,,,0.00,weatherlink.com 1.10,2013-03-27 13:58:00,
2013-03-27 09:13:00,49.6,36.0,31.21,ESE,106,0.0,-999.0,59,-99.99,,,0.00,weatherlink.com 1.10,2013-03-27 14:13:00,
2013-03-27 09:28:00,52.0,36.0,31.21,ESE,106,0.0,-999.0,54,-99.99,,,0.00,weatherlink.com 1.10,2013-03-27 14:28:00,
2013-03-27 09:44:00,53.5,36.0,31.21,East,90,0.0,-999.0,52,-99.99,,,0.00,weatherlink.com 1.10,2013-03-27 14:44:00,
2013-03-27 09:58:00,55.3,37.0,31.21,SE,130,0.0,-999.0,50,-99.99,,,0.00,weatherlink.com 1.10,2013-03-27 14:58:00,
2013-03-27 10:14:00,57.3,38.0,31.20,East,96,5.0,-999.0,48,-99.99,,,0.00,weatherlink.com 1.10,2013-03-27 15:14:00,
2013-03-27 10:29:00,58.7,39.0,31.20,ESE,110,0.0,-999.0,48,-99.99,,,0.00,weatherlink.com 1.10,2013-03-27 15:29:00,
2013-03-27 10:44:00,59.2,40.0,31.19,SSE,167,7.0,-999.0,49,-99.99,,,0.00,weatherlink.com 1.10,2013-03-27 15:44:00,
2013-03-27 10:59:00,60.3,41.0,31.19,South,180,6.0,-999.0,49,-99.99,,,0.00,weatherlink.com 1.10,2013-03-27 15:59:00,
2013-03-27 11:14:00,61.0,40.0,31.19,SE,144,3.0,-999.0,47,-99.99,,,0.00,weatherlink.com 1.10,2013-03-27 16:14:00,
2013-03-27 11:29:00,62.0,42.0,31.18,SSE,155,9.0,-999.0,49,-99.99,,,0.00,weatherlink.com 1.10,2013-03-27 16:29:00,
2013-03-27 11:44:00,62.4,41.0,31.19,South,182,5.0,-999.0,46,-99.99,,,0.00,weatherlink.com 1.10,2013-03-27 16:44:00,
2013-03-27 11:59:00,63.6,41.0,31.18,SE,137,4.0,-999.0,44,-99.99,,,0.00,weatherlink.com 1.10,2013-03-27 16:59:00,
2013-03-27 12:14:00,64.4,41.0,31.18,SSW,197,13.0,-999.0,43,-99.99,,,0.00,weatherlink.com 1.10,2013-03-27 17:14:00,
2013-03-27 12:29:00,65.4,41.0,31.17,South,187,2.0,-999.0,41,-99.99,,,0.00,weatherlink.com 1.10,2013-03-27 17:29:00,
2013-03-27 12:44:00,66.6,40.0,31.16,SSE,153,3.0,-999.0,38,-99.99,,,0.00,weatherlink.com 1.10,2013-03-27 17:44:00,
2013-03-27 12:59:00,66.5,42.0,31.15,South,179,6.0,-999.0,41,-99.99,,,0.00,weatherlink.com 1.10,2013-03-27 17:59:00,
2013-03-27 13:14:00,67.2,41.0,31.14,SE,145,3.0,-999.0,38,-99.99,,,0.00,weatherlink.com 1.10,2013-03-27 18:14:00,
2013-03-27 13:29:00,67.7,40.0,31.13,South,185,2.0,-999.0,36,-99.99,,,0.00,weatherlink.com 1.10,2013-03-27 18:29:00,
2013-03-27 13:44:00,67.9,40.0,31.13,SE,144,6.0,-999.0,36,-99.99,,,0.00,weatherlink.com 1.10,2013-03-27 18:44:00,
2013-03-27 13:59:00,68.8,39.0,31.13,SE,140,9.0,-999.0,34,-99.99,,,0.00,weatherlink.com 1.10,2013-03-27 18:59:00,
2013-03-27 14:14:00,69.6,40.0,31.12,SSW,213,7.0,-999.0,34,-99.99,,,0.00,weatherlink.com 1.10,2013-03-27 19:14:00,
2013-03-27 14:29:00,69.2,40.0,31.10,SSW,203,6.0,-999.0,35,-99.99,,,0.00,weatherlink.com 1.10,2013-03-27 19:29:00,
2013-03-27 14:44:00,69.8,40.0,31.09,South,173,0.0,-999.0,34,-99.99,,,0.00,weatherlink.com 1.10,2013-03-27 19:44:00,
2013-03-27 14:59:00,70.4,42.0,31.08,SSW,213,7.0,-999.0,36,-99.99,,,0.00,weatherlink.com 1.10,2013-03-27 19:59:00,
2013-03-27 15:14:00,70.6,43.0,31.07,South,169,7.0,-999.0,37,-99.99,,,0.00,weatherlink.com 1.10,2013-03-27 20:14:00,
2013-03-27 15:29:00,71.6,45.0,31.06,SSW,202,10.0,-999.0,38,-99.99,,,0.00,weatherlink.com 1.10,2013-03-27 20:29:00,
2013-03-27 15:44:00,70.9,44.0,31.06,SSE,150,4.0,-999.0,38,-99.99,,,0.00,weatherlink.com 1.10,2013-03-27 20:44:00,
2013-03-27 15:59:00,71.3,46.0,31.05,SW,219,9.0,-999.0,40,-99.99,,,0.00,weatherlink.com 1.10,2013-03-27 20:59:00,
2013-03-27 16:14:00,71.2,46.0,31.04,South,178,8.0,-999.0,40,-99.99,,,0.00,weatherlink.com 1.10,2013-03-27 21:14:00,
2013-03-27 16:29:00,71.3,46.0,31.03,South,175,6.0,-999.0,41,-99.99,,,0.00,weatherlink.com 1.10,2013-03-27 21:29:00,
2013-03-27 16:44:00,71.1,45.0,31.02,SSW,201,6.0,-999.0,40,-99.99,,,0.00,weatherlink.com 1.10,2013-03-27 21:44:00,
2013-03-27 17:00:00,71.1,45.0,31.02,South,175,12.0,-999.0,40,-99.99,,,0.00,weatherlink.com 1.10,2013-03-27 22:00:00,
2013-03-27 17:15:00,70.5,45.0,31.01,South,184,5.0,-999.0,40,-99.99,,,0.00,weatherlink.com 1.10,2013-03-27 22:15:00,
2013-03-27 17:30:00,70.2,45.0,31.01,South,182,6.0,-999.0,40,-99.99,,,0.00,weatherlink.com 1.10,2013-03-27 22:30:00,
2013-03-27 17:45:00,70.3,46.0,31.00,SSW,202,11.0,-999.0,42,-99.99,,,0.00,weatherlink.com 1.10,2013-03-27 22:45:00,
2013-03-27 17:59:00,70.1,46.0,31.01,SW,222,10.0,-999.0,42,-99.99,,,0.00,weatherlink.com 1.10,2013-03-27 22:59:00,
2013-03-27 18:14:00,68.3,45.0,31.00,SSW,201,5.0,-999.0,43,-99.99,,,0.00,weatherlink.com 1.10,2013-03-27 23:14:00,
2013-03-27 18:29:00,66.8,45.0,31.01,South,179,1.0,-999.0,45,-99.99,,,0.00,weatherlink.com 1.10,2013-03-27 23:29:00,
2013-03-27 18:44:00,66.6,45.0,31.00,SSW,194,1.0,-999.0,46,-99.99,,,0.00,weatherlink.com 1.10,2013-03-27 23:44:00,
2013-03-27 18:59:00,66.0,46.0,31.00,SSW,212,2.0,-999.0,48,-99.99,,,0.00,weatherlink.com 1.10,2013-03-27 23:59:00,
2013-03-27 19:14:00,65.6,46.0,31.01,SSW,211,6.0,-999.0,49,-99.99,,,0.00,weatherlink.com 1.10,2013-03-28 00:14:00,
2013-03-27 19:29:00,64.9,46.0,31.01,South,182,4.0,-999.0,50,-99.99,,,0.00,weatherlink.com 1.10,2013-03-28 00:29:00,
2013-03-27 19:44:00,64.1,45.0,31.01,South,175,0.0,-999.0,51,-99.99,,,0.00,weatherlink.com 1.10,2013-03-28 00:44:00,
2013-03-27 19:59:00,63.2,45.0,31.01,SSW,213,9.0,-999.0,52,-99.99,,,0.00,weatherlink.com 1.10,2013-03-28 00:59:00,
2013-03-27 20:14:00,62.1,45.0,31.02,South,186,1.0,-999.0,54,-99.99,,,0.00,weatherlink.com 1.10,2013-03-28 01:14:00,
2013-03-27 20:29:00,61.3,45.0,31.02,South,184,3.0,-999.0,56,-99.99,,,0.00,weatherlink.com 1.10,2013-03-28 01:29:00,
2013-03-27 20:44:00,60.7,46.0,31.03,SSW,198,0.0,-999.0,58,-99.99,,,0.00,weatherlink.com 1.10,2013-03-28 01:44:00,
2013-03-27 21:00:00,60.5,46.0,31.04,SSE,155,5.0,-999.0,60,-99.99,,,0.00,weatherlink.com 1.10,2013-03-28 02:00:00,
2013-03-27 21:15:00,60.5,47.0,31.05,SW,226,3.0,-999.0,61,-99.99,,,0.00,weatherlink.com 1.10,2013-03-28 02:15:00,
2013-03-27 21:30:00,59.9,47.0,31.05,South,178,6.0,-999.0,62,-99.99,,,0.00,weatherlink.com 1.10,2013-03-28 02:30:00,
2013-03-27 21:45:00,58.9,47.0,31.06,SSW,205,4.0,-999.0,64,-99.99,,,0.00,weatherlink.com 1.10,2013-03-28 02:45:00,
2013-03-27 21:59:00,58.2,47.0,31.06,SW,223,7.0,-999.0,66,-99.99,,,0.00,weatherlink.com 1.10,2013-03-28 02:59:00,
2013-03-27 22:14:00,57.7,47.0,31.06,SSW,201,7.0,-999.0,67,-99.99,,,0.00,weatherlink.com 1.10,2013-03-28 03:14:00,
2013-03-27 22:29:00,56.9,46.0,31.07,South,182,3.0,-999.0,68,-99.99,,,0.00,weatherlink.com 1.10,2013-03-28 03:29:00,
2013-03-27 22:44:00,56.6,46.0,31.06,South,190,4.0,-999.0,69,-99.99,,,0.00,weatherlink.com 1.10,2013-03-28 03:44:00,
2013-03-27 22:59:00,56.2,47.0,31.06,South,184,1.0,-999.0,70,-99.99,,,0.00,weatherlink.com 1.10,2013-03-28 03:59:00,
2013-03-27 23:14:00,55.8,47.0,31.06,South,171,5.0,-999.0,71,-99.99,,,0.00,weatherlink.com 1.10,2013-03-28 04:14:00,
2013-03-27 23:29:00,55.3,46.0,31.06,South,183,0.0,-999.0,72,-99.99,,,0.00,weatherlink.com 1.10,2013-03-28 04:29:00,
2013-03-27 23:44:00,54.8,47.0,31.06,South,175,0.0,-999.0,74,-99.99,,,0.00,weatherlink.com 1.10,2013-03-28 04:44:00,
2013-03-27 23:59:00,54.4,46.0,31.05,SSE,157,2.0,-999.0,74,-99.99,,,0.00,weatherlink.com 1.10,2013-03-28 04:59:00,